Location: Biltmore Gardens
(41.6070°N, 83.4666°W)
Time: 02:52:00
(UTC+00:00)

Tiros 1 - All Passes

Search period start: 21 April 2021 00:00
Search period end: 01 May 2021 00:00
Orbit: 630 x 663 km, 48.4° (Epoch: 20 April)

Date Brightness Start Highest point End Pass type
(mag) Time Alt. Az. Time Alt. Az. Time Alt. Az.
21 Apr - 13:21:16 10° SSW 13:25:24 32° SE 13:29:32 10° ENE daylight
21 Apr - 15:02:45 10° WSW 15:07:23 65° NNW 15:12:01 10° ENE daylight
21 Apr - 16:45:50 10° WNW 16:50:08 35° N 16:54:23 10° ENE daylight
21 Apr - 18:28:31 10° WNW 18:32:59 47° NNE 18:37:27 10° E daylight
21 Apr - 20:10:45 10° WNW 20:15:17 56° SW 20:19:48 10° SE daylight
21 Apr - 21:55:46 10° WSW 21:56:41 11° SW 21:57:37 10° SW daylight
22 Apr - 12:07:24 10° SSE 12:09:40 13° SE 12:11:54 10° ESE daylight
22 Apr - 13:46:33 10° SW 13:51:11 66° SSE 13:55:47 10° ENE daylight
22 Apr - 15:29:07 10° W 15:33:34 44° NNW 15:38:01 10° ENE daylight
22 Apr - 17:12:10 10° WNW 17:16:28 36° N 17:20:44 10° ENE daylight
22 Apr - 18:54:29 10° WNW 18:59:07 74° NNE 19:03:44 10° ESE daylight
22 Apr - 20:37:09 10° W 20:41:00 27° SW 20:44:52 10° SSE daylight
23 Apr - 12:31:10 10° SSW 12:35:13 29° SE 12:39:16 10° ENE daylight
23 Apr - 14:12:30 10° WSW 14:17:10 69° NNW 14:21:48 10° ENE daylight
23 Apr - 15:55:34 10° WNW 15:59:52 36° N 16:04:09 10° ENE daylight
23 Apr - 17:38:17 10° WNW 17:42:45 45° NNE 17:47:11 10° E daylight
23 Apr - 19:20:31 10° WNW 19:25:04 61° SW 19:29:37 10° SE daylight
23 Apr - 21:04:54 10° WSW 21:06:32 12° SW 21:08:10 10° SSW daylight
24 Apr - 11:17:39 10° SSE 11:19:29 12° SE 11:21:21 10° ESE daylight
24 Apr - 12:56:21 10° SW 13:00:59 61° SE 13:05:34 10° ENE daylight
24 Apr - 14:38:50 10° W 14:43:19 45° NNW 14:47:47 10° ENE daylight
24 Apr - 16:21:55 10° WNW 16:26:13 36° N 16:30:29 10° ENE daylight
24 Apr - 18:04:17 10° WNW 18:08:54 69° NNE 18:13:30 10° ESE daylight
24 Apr - 19:46:51 10° WNW 19:50:50 29° SW 19:54:48 10° SSE daylight
25 Apr - 11:41:04 10° SSW 11:45:02 27° SE 11:48:59 10° E daylight
25 Apr - 13:22:15 10° WSW 13:26:56 73° NNW 13:31:36 10° ENE daylight
25 Apr - 15:05:17 10° WNW 15:09:37 36° N 15:13:55 10° ENE daylight
25 Apr - 16:48:03 10° WNW 16:52:31 44° NNE 16:56:56 10° E daylight
25 Apr - 18:30:17 10° WNW 18:34:53 65° SSW 18:39:27 10° SE daylight
25 Apr - 20:14:17 10° WSW 20:16:23 13° SW 20:18:28 10° SSW daylight
26 Apr - 10:28:02 10° SE 10:29:20 11° SE 10:30:38 10° ESE daylight
26 Apr - 12:06:10 10° SW 12:10:46 57° SE 12:15:22 10° ENE daylight
26 Apr - 13:48:33 10° W 13:53:05 47° NNW 13:57:35 10° ENE daylight
26 Apr - 15:31:39 10° WNW 15:35:57 35° N 15:40:14 10° ENE daylight
26 Apr - 17:14:03 10° WNW 17:18:41 66° NNE 17:23:17 10° ESE daylight
26 Apr - 18:56:34 10° WNW 19:00:39 31° SW 19:04:43 10° SSE daylight
27 Apr - 10:50:59 10° SSW 10:54:51 25° SE 10:58:42 10° E daylight
27 Apr - 12:32:00 10° WSW 12:36:43 78° NNW 12:41:24 10° ENE daylight
27 Apr - 14:15:01 10° WNW 14:19:21 37° N 14:23:41 10° ENE daylight
27 Apr - 15:57:49 10° WNW 16:02:16 42° NNE 16:06:40 10° E daylight
27 Apr - 17:40:03 10° WNW 17:44:41 70° SSW 17:49:16 10° SE daylight
27 Apr - 19:23:46 10° W 19:26:13 14° SW 19:28:40 10° SSW daylight
28 Apr - 11:15:59 10° SW 11:20:34 53° SE 11:25:08 10° ENE daylight
28 Apr - 12:58:16 10° W 13:02:50 49° NNW 13:07:22 10° ENE daylight
28 Apr - 14:41:23 10° WNW 14:45:42 35° N 14:49:58 10° ENE daylight
28 Apr - 16:23:50 10° WNW 16:28:27 62° NNE 16:33:02 10° ESE daylight
28 Apr - 18:06:17 10° WNW 18:10:28 34° SW 18:14:37 10° SSE daylight
29 Apr - 10:00:56 10° S 10:04:40 23° SE 10:08:24 10° E visible
29 Apr - 11:41:45 10° WSW 11:46:29 82° NNW 11:51:11 10° ENE daylight
29 Apr - 13:24:43 10° WNW 13:29:06 37° N 13:33:27 10° ENE daylight
29 Apr - 15:07:35 10° WNW 15:12:01 41° NNE 15:16:24 10° E daylight
29 Apr - 16:49:49 10° WNW 16:54:28 76° SSW 16:59:04 10° SE daylight
29 Apr - 18:33:18 10° W 18:36:03 16° SW 18:38:48 10° S daylight
30 Apr - 10:25:48 10° SW 10:30:22 49° SE 10:34:54 10° ENE daylight
30 Apr - 12:07:59 10° W 12:12:35 51° NNW 12:17:10 10° ENE daylight
30 Apr - 13:51:07 10° WNW 13:55:26 35° N 13:59:43 10° ENE daylight
30 Apr - 15:33:36 10° WNW 15:38:13 59° NNE 15:42:47 10° ESE daylight
30 Apr - 17:16:01 10° WNW 17:20:17 37° SW 17:24:31 10° SSE daylight
